EW4363 Weather Reports


time (UTC)temp
F
wind
direction
speed
knots
gust
knots
rain 1hr
in
rain 24hr
in
rain mn
in
humidity
%
barometer
mb
20260508003803 56 279 0.0 0.9 0.00 0.00 0.00 85 1012.3
20260508003302 56 279 0.0 0.9 0.00 0.00 0.00 84 1012.4
20260508002803 57 278 0.0 0.9 0.00 0.00 0.00 84 1012.3
20260508002306 57 276 0.0 0.9 0.00 0.00 0.00 84 1012.3
20260508001804 56 257 0.0 1.7 0.00 0.00 0.00 85 1012.4
20260508000802 56 331 0.0 0.0 0.00 0.00 0.00 85 1012.6
20260508000305 56 331 0.0 0.0 0.00 0.00 0.00 85 1012.6
20260507235803 56 331 0.0 0.0 0.00 0.00 0.00 85 1012.6
20260507235306 56 331 0.0 0.0 0.00 0.00 0.00 85 1012.6
20260507234802 56 331 0.0 0.0 0.00 0.00 0.00 85 1012.6
20260507234303 56 331 0.0 0.9 0.00 0.00 0.00 85 1012.7
20260507233803 56 335 0.0 0.0 0.00 0.00 0.00 84 1012.7
20260507233303 56 336 0.0 0.0 0.00 0.00 0.00 84 1012.8
20260507232803 56 336 0.0 0.0 0.00 0.00 0.00 84 1012.8
20260507231803 57 336 0.0 0.0 0.00 0.00 0.00 84 1012.9
20260507231303 57 336 0.0 0.0 0.00 0.00 0.00 83 1012.9
20260507230303 57 336 0.0 0.0 0.00 0.00 0.00 83 1013.0
20260507225802 57 337 0.0 0.0 0.00 0.00 0.00 83 1013.0
20260507225305 57 338 0.0 0.9 0.00 0.00 0.00 83 1013.0
20260507224803 57 280 0.0 0.0 0.00 0.00 0.00 83 1013.1
20260507223802 57 280 0.0 0.0 0.00 0.00 0.00 82 1013.1
20260507223303 57 280 0.0 0.0 0.00 0.00 0.00 82 1013.2
20260507222803 58 280 0.0 0.0 0.00 0.00 0.00 82 1013.2
20260507222305 58 280 0.0 0.0 0.00 0.00 0.00 81 1013.2
20260507221803 58 280 0.0 0.0 0.00 0.00 0.00 81 1013.2
20260507221303 58 280 0.0 0.9 0.00 0.00 0.00 81 1013.2
20260507220810 58 279 0.0 0.9 0.00 0.00 0.00 81 1013.3
20260507220302 58 279 0.9 1.7 0.00 0.00 0.00 80 1013.3
20260507215803 58 275 0.9 1.7 0.00 0.00 0.00 80 1013.3
20260507215306 59 334 0.0 0.0 0.00 0.00 0.00 80 1013.3
20260507214802 59 334 0.0 0.0 0.00 0.00 0.00 80 1013.3
20260507213803 59 334 0.0 0.0 0.00 0.00 0.00 79 1013.3
20260507213302 59 334 0.0 0.0 0.00 0.00 0.00 79 1013.3
20260507212803 59 334 0.0 0.0 0.00 0.00 0.00 79 1013.4
20260507212306 59 334 0.0 0.9 0.00 0.00 0.00 78 1013.3
20260507211803 59 276 0.0 0.0 0.00 0.00 0.00 78 1013.2
20260507210803 59 276 0.0 0.9 0.00 0.00 0.00 78 1013.2
20260507210302 59 276 0.0 0.0 0.00 0.00 0.00 78 1013.2
20260507205803 59 276 0.0 0.0 0.00 0.00 0.00 78 1013.2
20260507205306 60 276 0.0 0.9 0.00 0.00 0.00 78 1013.2
20260507204802 60 276 0.0 0.9 0.00 0.00 0.00 78 1013.2
20260507204304 60 276 0.0 0.0 0.00 0.00 0.00 77 1013.1
20260507203802 60 276 0.0 0.9 0.00 0.00 0.00 77 1013.0
20260507203303 60 276 0.0 0.9 0.00 0.00 0.00 77 1013.1
20260507202803 60 276 0.0 0.9 0.00 0.00 0.00 76 1013.0
20260507202306 60 276 0.0 0.0 0.00 0.00 0.00 76 1013.0
20260507201303 61 276 0.0 0.9 0.00 0.00 0.00 75 1012.9
20260507200803 61 276 0.0 0.9 0.00 0.00 0.00 75 1012.9
20260507200303 61 276 0.0 1.7 0.00 0.00 0.00 74 1012.8
20260507195803 61 286 0.0 0.9 0.00 0.00 0.00 74 1012.8
20260507195305 61 286 0.0 0.9 0.00 0.00 0.00 74 1012.7
20260507193804 61 286 0.0 1.7 0.00 0.00 0.00 74 1012.3
20260507193303 62 286 0.0 1.7 0.00 0.00 0.00 73 1012.3
20260507192803 62 286 0.0 1.7 0.00 0.00 0.00 72 1012.1
20260507191803 62 299 0.0 0.0 0.00 0.00 0.00 71 1012.0
20260507190803 63 328 0.0 0.0 0.00 0.00 0.00 71 1012.0
20260507190303 63 327 0.9 1.7 0.00 0.00 0.00 70 1011.9
20260507185803 63 326 0.9 2.6 0.00 0.00 0.00 70 1011.9
20260507185305 63 323 0.9 1.7 0.00 0.00 0.00 69 1011.8
20260507184304 64 323 1.7 2.6 0.00 0.00 0.00 69 1011.6
20260507183803 64 272 0.0 2.6 0.00 0.00 0.00 69 1011.6
20260507183303 64 325 0.9 2.6 0.00 0.00 0.00 69 1011.5
20260507182803 64 322 1.7 4.3 0.00 0.00 0.00 68 1011.5
20260507182306 64 321 0.9 4.3 0.00 0.00 0.00 67 1011.4
20260507181303 65 322 2.6 5.2 0.00 0.00 0.00 66 1011.3
20260507180803 65 325 0.9 4.3 0.00 0.00 0.00 66 1011.2
20260507180303 65 328 0.9 4.3 0.00 0.00 0.00 65 1011.1
20260507175803 65 326 0.9 2.6 0.00 0.00 0.00 65 1011.1
20260507175306 65 324 1.7 2.6 0.00 0.00 0.00 65 1011.1
20260507174803 65 282 0.9 2.6 0.00 0.00 0.00 65 1011.0
20260507174303 65 317 1.7 4.3 0.00 0.00 0.00 64 1011.0
20260507173303 66 322 1.7 2.6 0.00 0.00 0.00 63 1011.0
20260507172802 66 324 2.6 4.3 0.00 0.00 0.00 62 1010.9
20260507172307 66 320 1.7 4.3 0.00 0.00 0.00 62 1010.9
20260507171803 66 326 2.6 5.2 0.00 0.00 0.00 60 1011.0
20260507171303 66 326 1.7 2.6 0.00 0.00 0.00 62 1010.9
20260507170803 66 310 1.7 6.1 0.00 0.00 0.00 62 1010.8
20260507170303 66 319 2.6 6.1 0.00 0.00 0.00 62 1010.8
20260507165803 66 325 1.7 5.2 0.00 0.00 0.00 61 1010.7
20260507165306 67 318 2.6 5.2 0.00 0.00 0.00 61 1010.7
20260507164803 67 324 1.7 2.6 0.00 0.00 0.00 62 1010.7
20260507164303 67 321 1.7 2.6 0.00 0.00 0.00 62 1010.7
20260507163803 66 325 2.6 7.0 0.00 0.00 0.00 62 1010.7
20260507163303 67 322 2.6 6.1 0.00 0.00 0.00 62 1010.6
20260507162803 67 316 2.6 5.2 0.00 0.00 0.00 61 1010.6
20260507162306 67 323 1.7 4.3 0.00 0.00 0.00 62 1010.5
20260507161803 67 305 1.7 5.2 0.00 0.00 0.00 62 1010.5
20260507161303 67 307 2.6 7.0 0.00 0.00 0.00 62 1010.4
20260507160803 67 319 1.7 6.1 0.00 0.00 0.00 62 1010.4
20260507160303 67 321 2.6 7.0 0.00 0.00 0.00 61 1010.4
20260507155803 67 315 2.6 6.1 0.00 0.00 0.00 60 1010.5
20260507155306 68 321 3.5 7.0 0.00 0.00 0.00 59 1010.5
20260507154803 68 312 1.7 5.2 0.00 0.00 0.00 58 1010.6
20260507154303 68 316 1.7 6.1 0.00 0.00 0.00 58 1010.5
20260507153803 68 319 3.5 7.8 0.00 0.00 0.00 57 1010.6
20260507152804 69 318 2.6 7.8 0.00 0.00 0.00 56 1010.5
20260507151803 69 310 2.6 6.1 0.00 0.00 0.00 55 1010.5
20260507151303 69 322 2.6 7.8 0.00 0.00 0.00 55 1010.5
20260507150803 69 322 2.6 5.2 0.00 0.00 0.00 55 1010.5
20260507150303 69 319 1.7 5.2 0.00 0.00 0.00 56 1010.5
20260507145803 68 322 1.7 7.8 0.00 0.00 0.00 57 1010.5
20260507143803 71 320 2.6 7.8 0.00 0.00 0.00 54 1010.8
20260507143303 71 321 2.6 7.0 0.00 0.00 0.00 54 1010.8
20260507142803 70 316 1.7 7.0 0.00 0.00 0.00 55 1010.8
20260507142306 70 312 4.3 6.1 0.00 0.00 0.00 55 1010.9
20260507140803 71 322 1.7 7.0 0.00 0.00 0.00 54 1011.1
20260507135804 71 323 2.6 10.4 0.00 0.00 0.00 54 1011.2
20260507134803 71 318 3.5 7.8 0.00 0.00 0.00 53 1011.3
20260507134303 71 317 2.6 7.8 0.00 0.00 0.00 54 1011.1
20260507133803 71 315 2.6 6.1 0.00 0.00 0.00 53 1011.3
20260507133303 71 318 5.2 11.3 0.00 0.00 0.00 52 1011.4
20260507132803 71 317 2.6 8.7 0.00 0.00 0.00 54 1011.4
20260507132307 71 316 2.6 7.8 0.00 0.00 0.00 55 1011.4
20260507131303 71 304 1.7 7.0 0.00 0.00 0.00 54 1011.4
20260507130803 71 305 3.5 7.8 0.00 0.00 0.00 54 1011.5
20260507130303 71 308 3.5 7.8 0.00 0.00 0.00 54 1011.5
20260507125803 71 315 2.6 7.0 0.00 0.00 0.00 54 1011.5
20260507125306 71 320 3.5 10.4 0.00 0.00 0.00 54 1011.6
20260507124803 72 304 3.5 7.8 0.00 0.00 0.00 53 1011.8
20260507124304 72 312 2.6 11.3 0.00 0.00 0.00 54 1011.7
20260507123803 72 324 2.6 7.8 0.00 0.00 0.00 53 1011.7
20260507122803 72 322 3.5 7.0 0.00 0.00 0.00 53 1011.7
20260507122306 72 309 3.5 7.8 0.00 0.00 0.00 53 1011.8
20260507121803 72 313 4.3 8.7 0.00 0.00 0.00 52 1011.8
20260507121303 73 321 3.5 8.7 0.00 0.00 0.00 50 1011.8
20260507120803 73 318 3.5 7.0 0.00 0.00 0.00 50 1011.8
20260507120303 73 311 2.6 7.0 0.00 0.00 0.00 49 1011.8
20260507115803 73 315 2.6 10.4 0.00 0.00 0.00 50 1011.8
20260507115306 73 321 3.5 7.0 0.00 0.00 0.00 49 1011.8
20260507114804 73 313 2.6 4.3 0.00 0.00 0.00 50 1011.8
20260507114303 73 311 2.6 7.0 0.00 0.00 0.00 49 1011.9
20260507113804 72 317 1.7 4.3 0.00 0.00 0.00 52 1011.9
20260507112306 71 321 2.6 7.8 0.00 0.00 0.00 53 1012.1
20260507111803 71 321 1.7 2.6 0.00 0.00 0.00 54 1012.3
20260507111304 70 310 1.7 6.1 0.00 0.00 0.00 54 1012.3
20260507110803 70 323 3.5 6.1 0.00 0.00 0.00 53 1012.4
20260507110303 71 317 2.6 6.1 0.00 0.00 0.00 54 1012.5
20260507105803 71 316 1.7 6.1 0.00 0.00 0.00 55 1012.5
20260507105306 71 310 2.6 11.3 0.00 0.00 0.00 53 1012.5
20260507104303 71 324 1.7 5.2 0.00 0.00 0.00 53 1012.6
20260507103803 71 322 1.7 5.2 0.00 0.00 0.00 54 1012.7
20260507103303 71 322 2.6 5.2 0.00 0.00 0.00 54 1012.7
20260507102804 70 333 1.7 4.3 0.00 0.00 0.00 54 1012.8
20260507102306 70 322 2.6 4.3 0.00 0.00 0.00 56 1012.9
20260507101304 68 321 1.7 6.1 0.00 0.00 0.00 59 1012.9
20260507100803 67 323 1.7 2.6 0.00 0.00 0.00 62 1013.0
20260507100304 67 319 1.7 6.1 0.00 0.00 0.00 63 1013.1
20260507095305 68 318 1.7 2.6 0.00 0.00 0.00 62 1013.0
20260507094803 68 288 0.9 2.6 0.00 0.00 0.00 61 1013.0
20260507094303 68 325 0.9 2.6 0.00 0.00 0.00 61 1013.1
20260507093804 67 319 0.0 2.6 0.00 0.00 0.00 61 1013.1
20260507093303 67 317 0.0 1.7 0.00 0.00 0.00 62 1013.2
20260507092804 68 332 0.9 2.6 0.00 0.00 0.00 61 1013.2
20260507092306 68 326 1.7 2.6 0.00 0.00 0.00 59 1013.2
20260507091804 69 330 0.0 0.9 0.00 0.00 0.00 60 1013.2
20260507090803 67 309 0.9 4.3 0.00 0.00 0.00 63 1013.1
20260507090303 66 313 0.9 2.6 0.00 0.00 0.00 64 1013.0
20260507085803 66 274 0.0 1.7 0.00 0.00 0.00 65 1013.0
20260507085306 66 320 0.9 1.7 0.00 0.00 0.00 65 1013.0
20260507084803 65 312 0.0 1.7 0.00 0.00 0.00 66 1013.0
20260507084304 65 310 0.0 1.7 0.00 0.00 0.00 67 1013.1
20260507083803 65 327 0.0 2.6 0.00 0.00 0.00 66 1013.2
20260507082804 66 324 0.9 2.6 0.00 0.00 0.00 65 1013.1
20260507082306 66 260 0.0 1.7 0.00 0.00 0.00 65 1013.1
20260507081803 65 326 0.0 1.7 0.00 0.00 0.00 65 1013.2
20260507081303 65 324 0.0 0.9 0.00 0.00 0.00 66 1013.2
20260507080804 64 324 0.0 0.9 0.00 0.00 0.00 65 1013.2
20260507080303 64 324 0.0 0.9 0.00 0.00 0.00 65 1013.3
20260507075804 63 325 0.9 1.7 0.00 0.00 0.00 65 1013.4
20260507075306 63 276 0.0 0.9 0.00 0.00 0.00 66 1013.5
20260507074804 62 276 0.0 0.0 0.00 0.00 0.00 67 1013.6
20260507074303 61 276 0.0 0.9 0.00 0.00 0.00 70 1013.6
20260507073804 60 276 0.0 0.9 0.00 0.00 0.00 71 1013.7
20260507073304 59 276 0.0 0.0 0.00 0.00 0.00 73 1013.6
20260507072804 58 276 0.0 0.0 0.00 0.00 0.00 74 1013.6
20260507072306 58 276 0.0 0.0 0.00 0.00 0.00 75 1013.6
20260507071803 57 276 0.0 0.9 0.00 0.00 0.00 76 1013.6
20260507071303 57 276 0.0 1.7 0.00 0.00 0.00 77 1013.6
20260507070804 56 272 0.0 0.0 0.00 0.00 0.00 77 1013.7
20260507070304 56 272 0.0 0.0 0.00 0.00 0.00 79 1013.6
20260507065803 56 274 0.0 0.0 0.00 0.00 0.00 79 1013.5
20260507065306 55 331 0.0 0.0 0.00 0.00 0.00 79 1013.5
20260507064804 55 324 0.0 0.0 0.00 0.00 0.00 79 1013.5
20260507064303 55 324 0.0 0.0 0.00 0.00 0.00 79 1013.4
20260507063804 55 324 0.0 0.0 0.00 0.00 0.00 80 1013.3
20260507062804 54 324 0.0 1.7 0.00 0.00 0.00 83 1013.3
20260507062306 54 323 0.9 1.7 0.00 0.00 0.00 83 1013.2
20260507061803 53 328 0.0 1.7 0.00 0.00 0.00 83 1013.1
20260507060803 53 324 0.0 0.9 0.00 0.00 0.00 86 1013.1
20260507060303 52 324 0.9 1.7 0.00 0.00 0.00 87 1013.0
20260507055803 51 283 0.0 0.9 0.00 0.00 0.00 88 1013.0
20260507054804 50 283 0.0 0.0 0.00 0.00 0.00 89 1013.0
20260507054304 50 283 0.0 0.0 0.00 0.00 0.00 88 1012.9
20260507053803 50 283 0.0 0.0 0.00 0.00 0.00 88 1012.9
20260507053304 50 283 0.0 0.0 0.00 0.00 0.00 88 1012.8
20260507052803 51 283 0.0 0.0 0.00 0.00 0.00 88 1012.8
20260507052306 51 283 0.0 0.0 0.00 0.00 0.00 88 1012.8
20260507051304 50 283 0.0 0.0 0.00 0.00 0.00 89 1012.6
20260507050304 50 283 0.0 0.0 0.00 0.00 0.00 89 1012.6
20260507045803 50 283 0.0 0.0 0.00 0.00 0.00 90 1012.6
20260507045306 50 283 0.0 0.0 0.00 0.00 0.00 89 1012.6
20260507044804 50 283 0.0 0.0 0.00 0.00 0.00 88 1012.6
20260507044304 50 257 0.0 0.0 0.00 0.00 0.00 88 1012.6
20260507043803 51 257 0.0 0.9 0.00 0.00 0.00 87 1012.6
20260507043304 51 257 0.0 0.9 0.00 0.00 0.00 88 1012.6
20260507042804 51 261 0.0 0.9 0.00 0.00 0.00 88 1012.5
20260507042306 51 293 0.0 0.9 0.00 0.00 0.00 89 1012.5
20260507041804 50 293 0.0 0.9 0.00 0.00 0.00 89 1012.5
20260507041304 50 293 0.0 0.0 0.00 0.00 0.00 88 1012.5
20260507040303 51 293 0.0 0.9 0.00 0.00 0.00 87 1012.6
20260507035804 51 293 0.0 0.9 0.00 0.00 0.00 87 1012.6
20260507035306 51 269 0.0 2.6 0.00 0.00 0.00 87 1012.5
20260507034803 51 260 0.9 2.6 0.00 0.00 0.00 88 1012.5
20260507034304 51 268 0.0 2.6 0.00 0.00 0.00 88 1012.5
20260507033805 51 279 0.0 0.0 0.00 0.00 0.00 89 1012.6
20260507033304 51 316 0.0 0.9 0.00 0.00 0.00 90 1012.6
20260507032804 51 326 0.0 0.9 0.00 0.00 0.00 90 1012.6
20260507031804 50 326 0.0 0.0 0.00 0.00 0.00 90 1012.7
20260507031304 50 326 0.0 0.0 0.00 0.00 0.00 90 1012.7
20260507030804 50 326 0.0 0.0 0.00 0.00 0.00 89 1012.7
20260507025804 50 325 0.0 1.7 0.00 0.00 0.00 88 1012.7
20260507025306 51 325 0.0 0.9 0.00 0.00 0.00 89 1012.6
20260507024303 51 325 0.0 0.0 0.00 0.01 0.00 90 1012.5
20260507023804 50 325 0.0 0.0 0.00 0.01 0.00 90 1012.5
20260507023303 50 325 0.0 0.0 0.00 0.01 0.00 89 1012.5
20260507022804 50 325 0.0 0.0 0.00 0.01 0.00 88 1012.4
20260507022306 51 325 0.0 0.9 0.00 0.01 0.00 88 1012.4
20260507021804 51 325 0.0 0.9 0.00 0.01 0.00 88 1012.5
20260507021304 51 324 0.9 1.7 0.00 0.01 0.00 88 1012.4
20260507020804 52 281 0.0 0.0 0.00 0.01 0.00 88 1012.4
20260507020304 52 281 0.0 0.9 0.00 0.01 0.00 88 1012.4
20260507015804 52 281 0.0 0.9 0.00 0.01 0.00 88 1012.5
20260507014804 51 281 0.0 0.0 0.00 0.01 0.00 88 1012.6
20260507014303 51 281 0.0 0.9 0.00 0.01 0.00 88 1012.7
20260507013804 51 281 0.0 0.9 0.00 0.01 0.00 88 1012.7
20260507013304 52 281 0.0 0.0 0.00 0.01 0.00 87 1012.7
20260507012804 52 281 0.0 0.9 0.00 0.01 0.00 86 1012.7
20260507012306 52 281 0.0 0.0 0.00 0.01 0.00 86 1012.7
20260507011804 52 281 0.0 0.9 0.00 0.01 0.00 87 1012.5
20260507011305 52 0 0.0 0.0 0.00 0.01 0.00 86 1012.5
20260507010804 52 281 0.0 0.0 0.00 0.01 0.00 86 1012.6
20260507010303 52 281 0.0 0.0 0.00 0.01 0.00 86 1012.7
20260507005804 52 281 0.0 0.0 0.00 0.01 0.00 87 1012.7
20260507005306 52 281 0.0 0.0 0.00 0.01 0.00 86 1012.7
20260507004804 52 281 0.0 0.0 0.00 0.01 0.00 86 1012.8